Location: Unspecified
(47.6578°N, 23.5640°E)
Time: 04:11:15
(UTC+02:00)

ISS - Pass Details

Date: 14 December 2017
Orbit: 402 x 407 km, 51.6° (Epoch: 10 December)

Event Time Altitude Azimuth Distance (km) Brightness Sun altitude
Rises 18:11:36 0° 292° (WNW) 2,331 0.9 -15.5°
Reaches altitude 10° 18:13:46 10° 285° (WNW) 1,467 -0.1 -15.9°
Maximum altitude 18:16:52 40° 214° (SSW) 609 -2.6 -16.4°
Enters shadow 18:19:32 13° 145° (SE) 1,291 -1.5 -16.8°
